Погода в Свирске

Россия / Иркутская область     53°03′59″N   103°20′32″E
В апреле 2022 года жителям России запретили посещать сайт meteo.paraplan.net по решению Генеральной прокуратуры. Аудитория сайта уменьшилась в 10 раз. Владельцы сайта не видят смысла в поддержке погодного сервера в таких условиях. Сайт будет закрыт в октябре.
темп.,
°C
ветер,
м/с
пор.,
м/с
влажн.,
%
обл.,
%
осадки,
мм/ч
давл.,
гПа
погр.,
м
4 октября, вт
вт423:00−1юв2263100 0.0 103713
02:00−2ююв1166100 0.0 103613
05:00−2ююв1164100 0.0 103616
08:00−1зсз1162100 0.0 103655
11:00+2сз125397 0.0 1036875
14:00+4ссз3449100 0.0 10341509
17:00+3с34538 0.0 10331029
20:00−1ссв22715 0.0 103513
5 октября, ср
ср523:00−2зюз00765 0.0 103510
02:00−3ююз11805 0.0 103410
05:00−3ююв11845 0.0 103310
08:00−3ююв128310 0.0 103329
11:00+2ююв225711 0.0 1031559
14:00+6ююв11455 0.0 1028902
17:00+6вюв114242 0.0 1026966
20:00+2вюв225992 0.0 102612
6 октября, чт
чт623:000юв226919 0.0 102514
02:00−1юв2274100 0.0 102435
05:000ссз1170100 0.0 102327
08:00+1ссз1167100 0.0 102445
11:00+4сз6759100 0.1 10241051
14:00+5сз4657100 0.1 10241275
17:00+5ссз4542100 0.0 10241343
20:00+3сз3755100 0.0 1026209
7 октября, пт
пт723:00+1ссз3770100 0.0 1027228
02:000сз3777100 0.0 1028282
05:000сз4990100 0.0 1030456
08:00−1сз4989100 0.0 1031554
11:00+2сз6864100 0.1 10311253
14:00+3сз6757100 0.6 10311384
17:00+3ссз67518 0.2 10321561
20:00−1сз387727 0.2 1035182
8 октября, сб
сб823:00−3зсз369116 0.0 1037121
02:00−3зсз35935 0.0 1037102
05:00−4зсз22925 0.0 103813
08:00−4ю11895 0.0 103812
11:00+2ююв44575 0.0 1036597
14:00+5ююв4540100 0.0 1032984
17:00+5юв4541100 0.0 1030435
20:00+1вюв3555100 0.0 103065